BLOCK DM-SL R/B, 29237

Orbit data source: Space-Track

BLOCK DM-SL R/B, 29237 is space debris in HEO originally from a launch on Sun, 18 Jun 2006 UTC launched from the Sea Launch (SEAL). Debris objects in space refer to the collection of defunct objects orbiting the Earth. Examples of debris include non-operational satellites, rocket bodies, and fragments generated from explosions, collisions, or faulty payload assembly.

Loading next visibility...
Identifier
29237, 2006-023B
Orbit
HEO
Country
Flag of USUS / SEAL
Related business
Manufacturer
RKKE
Mission
Spacecraft
Bus & Motor
BLOK DM2, 11D58M
Mass
~3,070 kg wet, 3,070 kg dry
Launch date (UTC)
2006-06-18 (20 years ago)
Launch vehicle
Unknown
Launch site
Sea Launch (SEAL)
Object type
Payload
Rocket body
Debris
Shape & HBR
Cyl, 3.1 m
Radar Cross Section
23.684 m², Large (>1 m²)

Expand to show TLE details & history
Last TLE update: 1 day ago

TLE from 1 day ago
0 BLOCK DM-SL R/B
1 29237U 06023B   26170.95117913 -.00000160  00000-0  00000+0 0  9993
2 29237   0.7884  29.2162 6631428  38.1445 347.6480  2.15892664157737
Epoch: 2026-06-19T22:49Z
TLE epoch observation values (Epoch: 2026-06-19T22:49:41.876Z)
Latitude
-0.3969°
Longitude
109.40391°
Altitude
4,892.053 km
Speed
7.414 km/s
True Right ascension
00h 00m 00s
True Declination
0° 23' 43"
Sunlit
Object was in daylight at epoch
Visualization orbit readout
Latitude
Unknown
Longitude
Unknown
Altitude
Unknown
Speed
Unknown
Apparent Right ascension
Unknown
Apparent Declination
Unknown
Sunlit
N/A
Visualization observer readout
Local Sidereal Time
13:59:42
Azimuth
Unknown
Elevation
Unknown
Doppler factor
Unknown
Orbital elements
Apogee altitude
35,685.908 km
Perigee altitude
2,141.622 km
Semi-major axis
25,291.902 km
Eccentricity
0.66314
Inclination
0.7884°
RAAN
29.2162°
Arg. of periapsis
38.1445°
True anomaly
293.12209°
Mean anomaly
347.648°
Eccentric anomaly
326.89708°
Mean motion
0.5396 °/min
Orbital period
667.16 mins
BSTAR
0
Loading maneuver chart data...
Computing Atmospheric mass density...
Loading historical data...
Loading historical data...
Loading historical data...
Loading historical data...
Loading historical data...
Loading historical data...
Loading historical data...
Other satellites on launch #23 in the year 2006 (2006-06-18 UTC)

Documentation

Showing up to 5 results
|